Sault Ste Marie, MI

12:03 PM EDT on July 24, 2017 (GMT -0400)
Sault Ste Marie Municipal / Sanderson Field

Weather History for KANJ - February, 2013

Change the Weather History Date:

Tuesday, February 26, 2013

  Actual Average Record
Temperature  
Mean Temperature 31 °F 20 °F  
Max Temperature 33 °F 29 °F 46 °F (2000)
Min Temperature 28 °F 12 °F -22 °F (1934)
Degree Days  
Heating Degree Days 34 45  
Month to date heating degree days 1278 1237  
Since 1 July heating degree days 5661 6037  
Moisture  
Dew Point 22 °F    
Average Humidity 73    
Maximum Humidity 85    
Minimum Humidity 61    
Precipitation  
Precipitation 0.00 in 0.05 in 0.64 in (1951)
Month to date precipitation 2.77 1.24  
Year to date precipitation 6.06 3.43  
Snow  
Snow 0.00 in 0.50 in 6.00 in (1975)
Month to date snowfall 31.2 17.5  
Since 1 July snowfall 120.6 99.1  
Snow Depth 27.00 in    
Sea Level Pressure  
Sea Level Pressure 30.08 in    
Wind  
Wind Speed 7 mph (ENE)    
Max Wind Speed 15 mph    
Max Gust Speed 22 mph    
Visibility 10 miles    
Events      
T = Trace of Precipitation, MM = Missing Value Source: NWS Daily Summary

Daily Weather History Graph

Daily Weather History Graph

Search for Another Location

Airport or City:

Trip Planner

Search our weather history database for the weather conditions in past years. The results will help you decide how hot, cold, wet, or windy it might be!

Date:

Astronomy

Feb. 26, 2013 Rise Set
Actual Time 7:21 AM EST 6:19 PM EST
Civil Twilight 6:51 AM EST 6:49 PM EST
Nautical Twilight 6:16 AM EST 7:24 PM EST
Astronomical Twilight 5:41 AM EST 7:59 PM EST
Moon 7:43 PM EST (2/26) 7:18 AM EST (2/26)
Length of Visible Light 11h 58m
Length of Day
10h 57m
Full, 99% of the Moon is Illuminated
Feb 26
Full
Mar 4
Last Quarter
Mar 11
New
Mar 19
First Quarter
Mar 27
Full

Hourly Weather History & Observations

Time (EST) Temp. Windchill Dew Point Humidity Pressure Visibility Wind Dir Wind Speed Gust Speed Precip Events Conditions
12:55 AM 28.9 °F - 24.1 °F 82% 30.17 in 10.0 mi Calm Calm - N/A   Overcast
1:55 AM 28.9 °F - 24.1 °F 82% 30.19 in 10.0 mi Calm Calm - N/A   Overcast
2:55 AM 28.0 °F 24.2 °F 24.1 °F 85% 30.18 in 10.0 mi ENE 3.5 mph - N/A   Overcast
3:55 AM 28.0 °F 24.2 °F 24.1 °F 85% 30.18 in 10.0 mi East 3.5 mph - N/A   Overcast
4:55 AM 28.0 °F 22.8 °F 24.1 °F 85% 30.18 in 10.0 mi East 4.6 mph - N/A   Overcast
5:55 AM 28.0 °F 22.8 °F 24.1 °F 85% 30.17 in 10.0 mi ENE 4.6 mph - N/A   Overcast
6:55 AM 28.0 °F - 24.1 °F 85% 30.16 in 10.0 mi Calm Calm - N/A   Overcast
7:55 AM 28.9 °F 22.8 °F 24.1 °F 82% 30.17 in 10.0 mi East 5.8 mph - N/A   Overcast
8:55 AM 28.9 °F 22.8 °F 25.0 °F 85% 30.16 in 10.0 mi East 5.8 mph - N/A   Overcast
9:55 AM 30.9 °F 24.3 °F 24.1 °F 76% 30.17 in 10.0 mi East 6.9 mph - N/A   Overcast
10:55 AM 30.9 °F 21.7 °F 23.0 °F 72% 30.15 in 10.0 mi East 11.5 mph - N/A   Overcast
11:55 AM 32.0 °F 23.6 °F 23.0 °F 69% 30.12 in 10.0 mi ESE 10.4 mph 16.1 mph N/A   Overcast
12:33 PM 32.0 °F 21.6 °F 19.9 °F 61% 30.09 in 10.0 mi East 15.0 mph 21.9 mph N/A   Overcast
12:55 PM 32.0 °F 22.1 °F 21.0 °F 64% 30.11 in 10.0 mi East 13.8 mph 19.6 mph N/A   Overcast
1:55 PM 33.1 °F 26.9 °F 21.0 °F 61% 30.07 in 10.0 mi East 6.9 mph - N/A   Overcast
2:55 PM 33.1 °F 26.9 °F 21.0 °F 61% 30.04 in 10.0 mi ENE 6.9 mph - N/A   Overcast
3:55 PM 33.1 °F 25.5 °F 21.9 °F 64% 30.02 in 10.0 mi East 9.2 mph - N/A   Overcast
4:55 PM 33.1 °F 26.1 °F 21.9 °F 64% 30.01 in 10.0 mi ENE 8.1 mph 16.1 mph N/A   Overcast
5:55 PM 32.0 °F 23.6 °F 21.9 °F 66% 30.00 in 10.0 mi ENE 10.4 mph - N/A   Overcast
6:55 PM 30.9 °F 21.7 °F 21.9 °F 69% 30.01 in 10.0 mi East 11.5 mph - N/A   Overcast
7:55 PM 30.0 °F 21.7 °F 21.0 °F 69% 30.02 in 10.0 mi ENE 9.2 mph - N/A   Overcast
8:28 PM 28.9 °F 21.9 °F 19.9 °F 69% 29.98 in 10.0 mi NE 6.9 mph - N/A   Partly Cloudy
8:55 PM 28.9 °F 22.8 °F 19.9 °F 69% 29.99 in 10.0 mi ENE 5.8 mph - N/A   Clear
9:55 PM 28.9 °F 21.9 °F 21.0 °F 72% 29.96 in 10.0 mi Variable 6.9 mph 16.1 mph N/A   Clear
10:55 PM 28.9 °F 20.4 °F 21.0 °F 72% 29.92 in 10.0 mi ENE 9.2 mph - N/A   Clear
11:55 PM 28.9 °F 19.8 °F 21.0 °F 72% 29.89 in 10.0 mi ENE 10.4 mph - N/A   Clear